"startDT [UTC]","vpos","CH4 [ppm]","stdev(CH4) [ppm]","CO2 [ppm]","stdev(CO2) [ppm]","H2O [ppm]","stdev(H2O)","p_LGR [torr]","T_LGR [C]","mt1_LGR [us]","mt2_LGR [us]","T_ECpre [C]","T_EC1 [C]","T_EC2 [C]","p_inlet [hPa]","p_in [hPa]","p_out [hPa]","T_inlet [C]","RH_inlet [%]","dwpt_inlet [C]","T_vent [C]","RH_vent [%]","dwpt_vent [C]","flow_vent [l min-1]","flow_inlet [l min-1]","dwpt_sample [C]","T_room [C]"
2012-04-24 00:00:00,0.0,1.9002,0.0011,402.35,0.30,164.3,38.4,138.15,28.27,24.62,36.32,0.04,-272.73,-272.73,-55,557,-929,22.9,5.6,-17.5,22.8,5.8,-17.1,5.73,2.30,-24.6,26.0
2012-04-24 00:01:00,0.0,1.8999,0.0011,402.40,0.33,162.0,35.2,138.14,28.25,24.62,36.32,0.04,-272.74,-272.74,-54,557,-928,22.8,5.6,-17.5,22.8,5.8,-17.1,5.73,2.36,-24.6,26.5
2012-04-24 00:02:00,0.0,1.9003,0.0009,402.26,0.38,168.5,39.0,138.14,28.24,24.62,36.32,0.04,-272.73,-272.74,-54,557,-928,22.8,5.6,-17.6,22.8,5.8,-17.1,5.73,2.34,-24.5,26.8
2012-04-24 00:03:00,0.0,1.9008,0.0011,402.37,0.37,189.3,31.8,138.14,28.24,24.61,36.32,0.04,-272.73,-272.74,-54,557,-928,22.8,5.5,-17.6,22.8,5.7,-17.2,5.73,2.44,-24.5,27.0
2012-04-24 00:04:00,0.0,1.9003,0.0011,402.29,0.37,184.6,37.6,138.13,28.23,24.61,36.31,0.04,-272.74,-272.74,-54,557,-928,22.8,5.5,-17.6,22.9,5.8,-17.1,5.73,2.30,-24.4,27.2
2012-04-24 00:05:00,0.0,1.9006,0.0010,402.22,0.34,189.8,39.9,138.13,28.23,24.61,36.32,0.04,-272.74,-272.74,-54,557,-928,22.8,5.6,-17.5,22.9,5.8,-17.0,5.73,2.32,-24.3,27.4
2012-04-24 00:06:00,0.0,1.9004,0.0011,402.13,0.33,204.5,42.7,138.13,28.24,24.62,36.32,0.04,-272.74,-272.74,-54,557,-928,22.9,5.6,-17.4,22.9,5.8,-17.0,5.73,2.43,-24.2,27.5
2012-04-24 00:07:00,0.0,1.9003,0.0012,402.09,0.40,215.6,39.9,138.12,28.24,24.61,36.33,0.04,-272.74,-272.74,-54,557,-928,22.9,5.6,-17.4,22.9,5.8,-17.0,5.73,2.38,-24.2,27.5
2012-04-24 00:08:00,0.0,1.9007,0.0011,402.16,0.34,223.8,38.9,138.12,28.25,24.61,36.32,0.04,-272.74,-272.74,-54,557,-928,22.9,5.6,-17.4,23.0,5.8,-16.9,5.73,2.30,-24.1,27.6
2012-04-24 00:09:00,0.0,1.9003,0.0012,402.17,0.40,230.8,42.4,138.12,28.26,24.62,36.33,0.04,-272.74,-272.74,-54,557,-928,22.9,5.6,-17.4,23.0,5.8,-17.0,5.73,2.33,-24.0,27.7
2012-04-24 00:10:00,0.0,1.9003,0.0008,402.11,0.39,231.6,45.0,138.12,28.27,24.62,36.33,0.04,-272.74,-272.74,-54,557,-928,22.9,5.5,-17.6,23.0,5.7,-17.1,5.73,2.41,-24.0,27.8
2012-04-24 00:11:00,0.0,1.9002,0.0010,402.24,0.41,240.7,47.0,138.11,28.28,24.62,36.32,0.04,-272.74,-272.74,-54,557,-928,22.9,5.5,-17.5,23.0,5.8,-17.0,5.73,2.40,-23.9,27.8
2012-04-24 00:12:00,0.0,1.9003,0.0011,402.27,0.35,243.8,39.3,138.11,28.30,24.61,36.32,0.04,-272.74,-272.74,-53,557,-928,23.0,5.6,-17.4,23.1,5.8,-16.9,5.73,2.31,-23.9,27.9
2012-04-24 00:13:00,0.0,1.9003,0.0009,402.27,0.37,242.8,41.5,138.11,28.31,24.62,36.32,0.04,-272.74,-272.73,-54,557,-928,23.0,5.5,-17.4,23.1,5.8,-17.0,5.73,2.31,-23.8,27.9
2012-04-24 00:14:00,0.0,1.9007,0.0011,402.25,0.34,253.3,44.0,138.11,28.32,24.61,36.33,0.04,-272.74,-272.73,-54,557,-928,23.0,5.5,-17.6,23.1,5.7,-17.1,5.73,2.39,-23.7,28.0
2012-04-24 00:15:00,0.0,1.9010,0.0009,402.18,0.38,256.7,45.1,138.11,28.33,24.62,36.33,0.04,-272.74,-272.74,-54,557,-928,23.1,5.4,-17.7,23.1,5.6,-17.2,5.73,2.42,-23.7,28.0
2012-04-24 00:16:00,0.0,1.9009,0.0011,402.29,0.36,268.3,44.9,138.11,28.35,24.62,36.33,0.04,-272.74,-272.74,-53,558,-928,23.1,5.5,-17.6,23.2,5.7,-17.1,5.73,2.35,-23.6,28.1
2012-04-24 00:17:00,0.0,1.9015,0.0010,402.36,0.36,287.2,44.4,138.10,28.36,24.61,36.33,0.04,-272.73,-272.74,-54,558,-928,23.1,5.5,-17.4,23.2,5.7,-17.0,5.73,2.29,-23.5,28.1
2012-04-24 00:18:00,0.0,1.9014,0.0011,402.45,0.33,268.5,45.3,138.10,28.38,24.62,36.33,0.04,-272.74,-272.74,-54,557,-928,23.1,5.5,-17.4,23.2,5.7,-16.9,5.73,2.36,-23.5,27.7
2012-04-24 00:19:00,0.0,1.9017,0.0010,402.27,0.35,276.2,37.5,138.11,28.39,24.61,36.33,0.04,-272.74,-272.74,-54,558,-928,23.2,5.5,-17.4,23.2,5.7,-17.0,5.73,2.40,-23.6,27.1
2012-04-24 00:20:00,0.0,1.9015,0.0012,402.26,0.35,256.4,44.5,138.11,28.39,24.62,36.34,0.04,-272.73,-272.74,-54,558,-928,23.1,5.5,-17.5,23.2,5.7,-17.0,5.73,2.36,-23.7,26.8
2012-04-24 00:21:00,0.0,1.9014,0.0010,402.23,0.37,250.5,38.4,138.12,28.39,24.62,36.33,0.04,-272.73,-272.74,-54,558,-928,23.1,5.5,-17.5,23.1,5.7,-17.0,5.73,2.28,-23.8,26.4
2012-04-24 00:22:00,0.0,1.9010,0.0010,402.33,0.38,238.3,44.6,138.12,28.39,24.62,36.32,0.04,-272.74,-272.74,-54,558,-929,23.1,5.5,-17.6,23.1,5.7,-17.1,5.73,2.45,-24.0,26.3
2012-04-24 00:23:00,0.0,1.9011,0.0012,402.40,0.35,214.7,41.9,138.13,28.38,24.62,36.32,0.04,-272.73,-272.74,-54,558,-929,23.0,5.5,-17.6,23.1,5.7,-17.2,5.73,2.40,-24.1,26.2
2012-04-24 00:24:00,0.0,1.9012,0.0010,402.32,0.35,213.0,33.5,138.13,28.36,24.62,36.32,0.04,-272.74,-272.73,-54,558,-929,23.0,5.5,-17.5,23.0,5.7,-17.1,5.73,2.28,-24.2,26.0
2012-04-24 00:25:00,0.0,1.9016,0.0010,402.37,0.30,184.2,37.9,138.13,28.35,24.61,36.32,0.04,-272.74,-272.74,-54,558,-929,23.0,5.5,-17.5,23.0,5.7,-17.1,5.73,2.33,-24.3,25.8
2012-04-24 00:26:00,0.0,1.9017,0.0010,402.39,0.43,181.6,40.9,138.14,28.33,24.62,36.33,0.04,-272.74,-272.74,-55,558,-929,22.9,5.5,-17.5,22.9,5.8,-17.1,5.73,2.44,-24.4,25.7
2012-04-24 00:27:00,0.0,1.9014,0.0009,402.25,0.34,182.4,41.2,138.14,28.31,24.62,36.32,0.04,-272.74,-272.74,-54,558,-929,22.9,5.5,-17.6,22.9,5.7,-17.1,5.73,2.42,-24.5,25.6
2012-04-24 00:28:00,0.0,1.9012,0.0009,402.41,0.36,169.9,44.9,138.14,28.29,24.62,36.32,0.04,-272.74,-272.74,-54,558,-929,22.9,5.5,-17.6,22.8,5.7,-17.2,5.73,2.31,-24.6,25.6
2012-04-24 00:29:00,0.0,1.9010,0.0010,402.46,0.35,165.0,41.9,138.14,28.27,24.61,36.32,0.04,-272.74,-272.74,-54,558,-929,22.9,5.5,-17.6,22.8,5.7,-17.2,5.73,2.31,-24.6,26.1
2012-04-24 00:30:00,0.0,1.9011,0.0009,402.36,0.39,164.8,42.6,138.14,28.25,24.61,36.32,0.04,-272.74,-272.74,-55,557,-928,22.9,5.6,-17.5,22.8,5.8,-17.1,5.73,2.44,-24.6,26.6
2012-04-24 00:31:00,0.0,1.9014,0.0012,402.38,0.36,166.1,39.9,138.14,28.24,24.61,36.32,0.04,-272.73,-272.74,-54,557,-929,22.9,5.6,-17.5,22.8,5.8,-17.1,5.73,2.33,-24.5,26.9
2012-04-24 00:32:00,0.0,1.9013,0.0012,402.28,0.39,176.9,42.3,138.13,28.24,24.61,36.33,0.04,-272.74,-272.74,-54,557,-928,22.9,5.6,-17.4,22.9,5.8,-17.0,5.73,2.31,-24.4,27.1
2012-04-24 00:33:00,0.0,1.9012,0.0011,402.21,0.35,188.4,40.4,138.13,28.23,24.61,36.32,0.04,-272.73,-272.74,-54,557,-928,22.9,5.6,-17.4,22.9,5.8,-16.9,5.73,2.44,-24.4,27.3
2012-04-24 00:34:00,0.0,1.9012,0.0010,402.22,0.36,199.4,41.0,138.13,28.24,24.62,36.33,0.04,-272.74,-272.74,-54,557,-928,22.9,5.6,-17.3,22.9,5.8,-16.9,5.73,2.36,-24.3,27.4
2012-04-24 00:35:00,0.0,1.9013,0.0010,402.31,0.33,200.3,38.9,138.13,28.24,24.61,36.32,0.04,-272.74,-272.74,-54,557,-928,22.9,5.6,-17.4,22.9,5.8,-16.9,5.73,2.29,-24.2,27.5
2012-04-24 00:36:00,0.0,1.9013,0.0010,402.26,0.31,208.9,33.8,138.12,28.25,24.62,36.32,0.04,-272.74,-272.74,-54,557,-928,22.9,5.5,-17.6,23.0,5.7,-17.0,5.73,2.37,-24.2,27.6
2012-04-24 00:37:00,0.0,1.9014,0.0011,402.25,0.33,221.7,41.6,138.12,28.26,24.61,36.32,0.04,-272.74,-272.73,-54,557,-928,22.9,5.5,-17.6,23.0,5.7,-17.1,5.73,2.43,-24.1,27.7
2012-04-24 00:38:00,0.0,1.9009,0.0012,402.22,0.39,233.2,38.1,138.12,28.26,24.62,36.32,0.04,-272.74,-272.74,-54,557,-928,22.9,5.5,-17.7,23.0,5.6,-17.2,5.73,2.34,-24.0,27.7
2012-04-24 00:39:00,0.0,1.9009,0.0011,402.10,0.40,232.4,42.3,138.12,28.27,24.62,36.33,0.04,-272.74,-272.74,-54,557,-928,22.9,5.4,-17.7,23.0,5.7,-17.2,5.73,2.29,-24.0,27.8
2012-04-24 00:40:00,0.0,1.9017,0.0013,402.35,0.37,235.0,37.0,138.11,28.29,24.61,36.33,0.04,-272.74,-272.74,-54,557,-928,23.0,5.4,-17.7,23.1,5.6,-17.2,5.73,2.36,-23.9,27.9
2012-04-24 00:41:00,0.0,1.9016,0.0011,402.32,0.40,247.5,39.6,138.11,28.30,24.62,36.32,0.04,-272.74,-272.74,-54,557,-928,23.0,5.5,-17.7,23.1,5.7,-17.2,5.73,2.42,-23.8,27.9
2012-04-24 00:42:00,0.0,1.9017,0.0009,402.22,0.35,250.5,40.4,138.11,28.31,24.61,36.33,0.04,-272.74,-272.74,-54,557,-928,23.0,5.4,-17.7,23.1,5.6,-17.2,5.73,2.36,-23.8,28.0
2012-04-24 00:43:00,0.0,1.9019,0.0012,402.35,0.34,260.6,37.3,138.11,28.33,24.62,36.33,0.04,-272.74,-272.74,-54,557,-928,23.1,5.4,-17.7,23.1,5.6,-17.2,5.73,2.29,-23.7,28.0
2012-04-24 00:44:00,0.0,1.9016,0.0010,402.36,0.38,265.4,42.2,138.11,28.34,24.62,36.33,0.04,-272.73,-272.74,-54,557,-928,23.1,5.4,-17.7,23.2,5.6,-17.2,5.73,2.33,-23.7,28.0
2012-04-24 00:45:00,0.0,1.9020,0.0011,402.27,0.40,266.9,36.1,138.10,28.36,24.62,36.34,0.04,-272.73,-272.74,-54,558,-928,23.1,5.4,-17.7,23.2,5.6,-17.2,5.73,2.41,-23.6,28.1
2012-04-24 00:46:00,0.0,1.9024,0.0011,402.40,0.39,276.9,36.7,138.10,28.37,24.62,36.33,0.04,-272.74,-272.74,-54,558,-928,23.2,5.3,-17.8,23.2,5.5,-17.4,5.73,2.40,-23.6,28.0
2012-04-24 00:47:00,0.0,1.9023,0.0012,402.34,0.37,267.7,44.3,138.10,28.38,24.62,36.34,0.04,-272.74,-272.74,-53,558,-928,23.2,5.4,-17.7,23.3,5.5,-17.3,5.73,2.26,-23.5,27.5
2012-04-24 00:48:00,0.0,1.9022,0.0012,402.37,0.35,273.9,39.9,138.11,28.39,24.62,36.33,0.04,-272.74,-272.74,-54,558,-929,23.2,5.4,-17.6,23.2,5.6,-17.2,5.73,2.47,-23.6,27.0
2012-04-24 00:49:00,0.0,1.9021,0.0010,402.28,0.39,247.7,40.2,138.11,28.39,24.62,36.33,0.04,-272.74,-272.74,-54,559,-929,23.1,5.4,-17.7,23.2,5.6,-17.2,5.73,2.26,-23.8,26.7
2012-04-24 00:50:00,0.0,1.9023,0.0012,402.35,0.44,239.5,39.0,138.12,28.39,24.62,36.34,0.04,-272.74,-272.74,-54,559,-929,23.1,5.3,-17.9,23.2,5.5,-17.4,5.73,2.39,-23.9,26.5
2012-04-24 00:51:00,0.0,1.9017,0.0009,402.35,0.33,226.3,38.3,138.12,28.38,24.62,36.33,0.04,-272.74,-272.74,-54,558,-929,23.1,5.3,-17.8,23.1,5.5,-17.4,5.73,2.45,-24.0,26.3
2012-04-24 00:52:00,0.0,1.9022,0.0010,402.34,0.37,217.8,36.4,138.13,28.37,24.62,36.33,0.04,-272.74,-272.74,-54,558,-929,23.1,5.4,-17.8,23.1,5.6,-17.3,5.73,2.31,-24.1,26.0
2012-04-24 00:53:00,0.0,1.9017,0.0011,402.33,0.34,212.2,38.0,138.13,28.36,24.62,36.33,0.04,-272.74,-272.74,-54,559,-929,23.0,5.4,-17.7,23.0,5.6,-17.3,5.73,2.29,-24.3,25.9
2012-04-24 00:54:00,0.0,1.9017,0.0011,402.41,0.34,188.8,41.7,138.13,28.34,24.62,36.32,0.04,-272.74,-272.74,-54,558,-929,23.0,5.4,-17.7,23.0,5.6,-17.3,5.73,2.41,-24.4,25.7
2012-04-24 00:55:00,0.0,1.9022,0.0009,402.42,0.37,185.3,39.3,138.14,28.33,24.61,36.32,0.04,-272.73,-272.74,-54,558,-929,22.9,5.5,-17.6,22.9,5.7,-17.2,5.73,2.45,-24.5,25.7
2012-04-24 00:56:00,0.0,1.9019,0.0011,402.37,0.39,177.1,44.5,138.14,28.31,24.61,36.32,0.04,-272.74,-272.74,-54,558,-929,22.9,5.5,-17.5,22.9,5.8,-17.1,5.73,2.34,-24.6,25.7
2012-04-24 00:57:00,0.0,1.9018,0.0011,402.38,0.39,162.3,33.6,138.14,28.29,24.62,36.32,0.04,-272.73,-272.74,-55,557,-929,22.9,5.6,-17.4,22.8,5.8,-17.0,5.73,2.27,-24.6,25.8
2012-04-24 00:58:00,0.0,1.9012,0.0011,402.47,0.34,173.0,44.2,138.14,28.27,24.62,36.32,0.04,-272.74,-272.74,-55,558,-929,22.9,5.6,-17.4,22.8,5.8,-17.0,5.73,2.46,-24.6,26.4
2012-04-24 00:59:00,0.0,1.9012,0.0012,402.42,0.39,167.5,41.7,138.14,28.26,24.61,36.32,0.04,-272.74,-272.74,-54,557,-928,22.9,5.6,-17.5,22.8,5.8,-17.0,5.73,2.28,-24.6,26.7
2012-04-24 01:00:00,0.0,1.9011,0.0010,402.29,0.38,175.2,43.7,138.14,28.25,24.61,36.32,0.04,-272.73,-272.74,-54,557,-928,22.9,5.5,-17.6,22.9,5.8,-17.1,5.73,2.46,-24.5,27.0
2012-04-24 01:01:00,0.0,1.9012,0.0009,402.22,0.37,187.3,42.9,138.13,28.25,24.61,36.33,0.04,-272.74,-272.74,-54,557,-928,22.9,5.5,-17.7,22.9,5.7,-17.2,5.73,2.33,-24.4,27.2
2012-04-24 01:02:00,0.0,1.9010,0.0011,402.22,0.37,206.9,37.9,138.13,28.25,24.62,36.32,0.04,-272.74,-272.74,-54,557,-928,22.9,5.5,-17.7,22.9,5.7,-17.2,5.73,2.30,-24.4,27.3
2012-04-24 01:03:00,0.0,1.9012,0.0013,402.19,0.38,197.2,41.9,138.13,28.25,24.61,36.32,0.04,-272.74,-272.74,-54,557,-928,22.9,5.5,-17.6,22.9,5.7,-17.2,5.73,2.42,-24.3,27.5
2012-04-24 01:04:00,0.0,1.9010,0.0011,402.21,0.31,223.0,41.1,138.12,28.25,24.62,36.33,0.04,-272.74,-272.74,-54,557,-928,22.9,5.5,-17.6,23.0,5.7,-17.1,5.73,2.40,-24.2,27.5
2012-04-24 01:05:00,0.0,1.9011,0.0011,402.24,0.41,223.2,41.1,138.12,28.26,24.62,36.32,0.04,-272.74,-272.73,-54,557,-928,22.9,5.5,-17.5,23.0,5.7,-17.1,5.73,2.30,-24.1,27.6
2012-04-24 01:06:00,0.0,1.9011,0.0012,402.21,0.40,228.6,45.8,138.12,28.27,24.62,36.32,0.04,-272.74,-272.74,-54,557,-928,22.9,5.6,-17.4,23.0,5.8,-16.9,5.73,2.32,-24.1,27.7
2012-04-24 01:07:00,0.0,1.9011,0.0012,402.26,0.34,230.4,39.4,138.12,28.28,24.61,36.32,0.04,-272.74,-272.74,-54,557,-928,22.9,5.5,-17.5,23.0,5.8,-17.0,5.73,2.42,-24.0,27.8
2012-04-24 01:08:00,0.0,1.9008,0.0011,402.16,0.32,234.0,41.5,138.11,28.30,24.62,36.33,0.04,-272.74,-272.73,-54,557,-928,23.0,5.5,-17.5,23.1,5.7,-17.0,5.73,2.40,-24.0,27.8
2012-04-24 01:09:00,0.0,1.9008,0.0010,402.10,0.43,236.6,38.5,138.11,28.31,24.62,36.33,0.04,-272.73,-272.74,-54,558,-928,23.0,5.5,-17.5,23.1,5.7,-17.0,5.73,2.31,-23.9,27.9
2012-04-24 01:10:00,0.0,1.9010,0.0010,402.25,0.38,244.0,42.6,138.11,28.32,24.62,36.33,0.04,-272.73,-272.74,-54,558,-928,23.0,5.5,-17.6,23.1,5.7,-17.1,5.73,2.31,-23.8,28.0
2012-04-24 01:11:00,0.0,1.9013,0.0010,402.15,0.34,247.9,40.9,138.11,28.34,24.62,36.33,0.04,-272.73,-272.74,-54,557,-928,23.1,5.5,-17.6,23.2,5.7,-17.1,5.73,2.39,-23.8,28.0
2012-04-24 01:12:00,0.0,1.9012,0.0010,402.37,0.32,259.0,38.7,138.11,28.35,24.62,36.32,0.04,-272.74,-272.74,-54,558,-928,23.1,5.4,-17.6,23.2,5.6,-17.1,5.73,2.41,-23.7,28.1
2012-04-24 01:13:00,0.0,1.9013,0.0010,402.30,0.43,257.5,38.8,138.10,28.36,24.62,36.33,0.04,-272.74,-272.74,-54,558,-928,23.1,5.4,-17.6,23.2,5.6,-17.2,5.73,2.35,-23.7,28.1
2012-04-24 01:14:00,0.0,1.9013,0.0010,402.22,0.41,266.3,42.1,138.10,28.38,24.62,36.34,0.04,-272.74,-272.74,-54,557,-928,23.2,5.5,-17.5,23.3,5.6,-17.1,5.73,2.29,-23.6,28.1
2012-04-24 01:15:00,0.0,1.9013,0.0008,402.32,0.37,280.1,38.4,138.10,28.39,24.62,36.34,0.04,-272.74,-272.73,-53,558,-928,23.2,5.4,-17.6,23.3,5.6,-17.2,5.73,2.38,-23.5,27.7
2012-04-24 01:16:00,0.0,1.9016,0.0010,402.28,0.38,264.8,37.7,138.11,28.40,24.62,36.33,0.04,-272.74,-272.74,-54,558,-929,23.2,5.4,-17.7,23.3,5.6,-17.2,5.73,2.37,-23.6,27.2
2012-04-24 01:17:00,0.0,1.9016,0.0011,402.39,0.35,256.7,41.7,138.11,28.41,24.62,36.33,0.04,-272.74,-272.73,-54,559,-928,23.2,5.4,-17.5,23.2,5.6,-17.1,5.73,2.41,-23.7,26.8
2012-04-24 01:18:00,0.0,1.9014,0.0010,402.33,0.37,246.5,47.5,138.12,28.41,24.62,36.33,0.04,-272.74,-272.73,-54,558,-929,23.2,5.5,-17.4,23.2,5.7,-17.0,5.73,2.26,-23.8,26.6
2012-04-24 01:19:00,0.0,1.9012,0.0010,402.23,0.34,225.9,39.3,138.12,28.40,24.62,36.34,0.04,-272.74,-272.74,-55,559,-929,23.1,5.5,-17.5,23.2,5.7,-17.0,5.73,2.42,-23.9,26.3
2012-04-24 01:20:00,0.0,1.9014,0.0011,402.21,0.41,214.9,45.4,138.12,28.39,24.61,36.33,0.04,-272.74,-272.74,-54,559,-929,23.1,5.3,-17.8,23.1,5.5,-17.4,5.73,2.44,-24.1,26.1
2012-04-24 01:21:00,0.0,1.9016,0.0011,402.24,0.37,213.8,36.1,138.13,28.38,24.61,36.33,0.04,-272.73,-272.73,-54,558,-929,23.0,5.3,-17.9,23.1,5.5,-17.4,5.73,2.30,-24.2,26.0
2012-04-24 01:22:00,0.0,1.9010,0.0008,402.35,0.34,204.6,39.3,138.13,28.37,24.62,36.33,0.04,-272.74,-272.73,-54,558,-929,23.1,5.3,-17.9,23.0,5.6,-17.4,5.73,2.29,-24.3,25.9
2012-04-24 01:23:00,0.0,1.9010,0.0012,402.23,0.39,195.2,44.8,138.14,28.35,24.61,36.33,0.04,-272.74,-272.74,-54,558,-929,23.0,5.4,-17.8,23.0,5.6,-17.4,5.73,2.41,-24.4,25.8
2012-04-24 01:24:00,0.0,1.9009,0.0010,402.35,0.34,178.9,36.3,138.14,28.33,24.62,36.32,0.04,-272.74,-272.74,-55,558,-929,22.9,5.4,-17.8,22.9,5.6,-17.3,5.73,2.45,-24.5,25.8
2012-04-24 01:25:00,0.0,1.9007,0.0009,402.31,0.35,176.3,37.6,138.14,28.31,24.62,36.32,0.04,-272.74,-272.74,-55,558,-929,22.9,5.4,-17.7,22.9,5.7,-17.3,5.73,2.35,-24.6,25.7
2012-04-24 01:26:00,0.0,1.9003,0.0010,402.40,0.34,154.8,39.5,138.14,28.29,24.62,36.32,0.04,-272.74,-272.74,-54,558,-929,22.9,5.5,-17.7,22.9,5.7,-17.3,5.73,2.26,-24.6,26.2
2012-04-24 01:27:00,0.0,1.9005,0.0009,402.38,0.35,177.2,39.2,138.14,28.27,24.61,36.32,0.04,-272.74,-272.74,-54,557,-929,22.9,5.5,-17.7,22.9,5.7,-17.2,5.73,2.48,-24.6,26.6
2012-04-24 01:28:00,0.0,1.9006,0.0010,402.26,0.30,170.5,46.5,138.14,28.26,24.61,36.32,0.04,-272.74,-272.74,-55,558,-929,22.9,5.5,-17.6,22.9,5.7,-17.2,5.73,2.27,-24.5,26.9
2012-04-24 01:29:00,0.0,1.9004,0.0010,402.24,0.33,174.4,36.8,138.13,28.26,24.61,36.32,0.04,-272.74,-272.74,-54,557,-928,22.9,5.5,-17.6,22.9,5.7,-17.1,5.73,2.38,-24.4,27.1
2012-04-24 01:30:00,0.0,1.9001,0.0009,402.15,0.38,192.5,39.6,138.13,28.26,24.61,36.33,0.04,-272.74,-272.73,-54,557,-928,22.9,5.6,-17.5,22.9,5.8,-17.0,5.73,2.43,-24.4,27.3
2012-04-24 01:31:00,0.0,1.8999,0.0011,402.18,0.42,203.9,35.9,138.13,28.26,24.62,36.32,0.04,-272.74,-272.74,-55,558,-928,22.9,5.5,-17.6,23.0,5.7,-17.1,5.73,2.31,-24.3,27.4
2012-04-24 01:32:00,0.0,1.8999,0.0009,402.13,0.45,207.8,49.1,138.12,28.26,24.62,36.32,0.04,-272.74,-272.74,-54,557,-928,22.9,5.5,-17.6,23.0,5.7,-17.1,5.73,2.31,-24.2,27.5
2012-04-24 01:33:00,0.0,1.9000,0.0011,402.09,0.33,215.3,32.4,138.12,28.27,24.62,36.33,0.04,-272.74,-272.73,-54,558,-928,22.9,5.5,-17.6,23.0,5.7,-17.1,5.73,2.41,-24.1,27.6
2012-04-24 01:34:00,0.0,1.9003,0.0011,402.13,0.42,217.4,46.6,138.12,28.28,24.61,36.32,0.04,-272.74,-272.73,-54,557,-928,23.0,5.5,-17.5,23.1,5.7,-17.0,5.73,2.41,-24.1,27.7
2012-04-24 01:35:00,0.0,1.9004,0.0011,402.04,0.39,226.6,41.3,138.12,28.29,24.61,36.33,0.04,-272.73,-272.73,-54,557,-928,23.0,5.6,-17.4,23.1,5.8,-16.9,5.73,2.31,-24.0,27.8
2012-04-24 01:36:00,0.0,1.9005,0.0011,402.18,0.39,233.6,44.7,138.11,28.30,24.62,36.32,0.04,-272.74,-272.74,-54,558,-928,23.0,5.6,-17.4,23.1,5.8,-16.9,5.73,2.31,-24.0,27.8
2012-04-24 01:37:00,0.0,1.9002,0.0013,402.14,0.36,248.2,44.9,138.11,28.32,24.62,36.33,0.04,-272.74,-272.74,-54,558,-928,23.0,5.5,-17.4,23.1,5.7,-16.9,5.73,2.39,-23.9,27.9
2012-04-24 01:38:00,0.0,1.9010,0.0012,402.09,0.40,244.7,43.0,138.11,28.33,24.61,36.33,0.04,-272.73,-272.74,-54,557,-928,23.1,5.6,-17.4,23.1,5.8,-16.9,5.73,2.41,-23.8,28.0
2012-04-24 01:39:00,0.0,1.9005,0.0010,402.16,0.38,257.3,46.1,138.11,28.34,24.61,36.34,0.04,-272.74,-272.74,-54,558,-928,23.1,5.6,-17.3,23.2,5.8,-16.8,5.73,2.34,-23.8,28.0
2012-04-24 01:40:00,0.0,1.9009,0.0012,402.13,0.46,258.4,45.7,138.11,28.36,24.62,36.33,0.04,-272.74,-272.74,-54,558,-928,23.1,5.6,-17.3,23.2,5.8,-16.9,5.73,2.30,-23.7,28.1
2012-04-24 01:41:00,0.0,1.9012,0.0010,402.23,0.30,273.6,46.0,138.11,28.37,24.62,36.33,0.04,-272.74,-272.74,-54,558,-928,23.2,5.5,-17.4,23.2,5.7,-16.9,5.73,2.34,-23.6,28.2
2012-04-24 01:42:00,0.0,1.9004,0.0009,402.27,0.42,273.0,34.5,138.10,28.39,24.62,36.34,0.04,-272.74,-272.74,-54,558,-928,23.2,5.5,-17.5,23.3,5.7,-17.0,5.73,2.41,-23.6,28.2
2012-04-24 01:43:00,0.0,1.9009,0.0011,402.21,0.37,280.8,35.7,138.10,28.40,24.62,36.34,0.04,-272.74,-272.74,-54,558,-928,23.2,5.4,-17.7,23.3,5.6,-17.2,5.73,2.36,-23.5,27.5
2012-04-24 01:44:00,0.0,1.9012,0.0011,402.19,0.44,273.2,41.8,138.11,28.41,24.62,36.34,0.04,-272.74,-272.74,-54,558,-928,23.3,5.3,-17.7,23.3,5.6,-17.2,5.73,2.34,-23.6,27.2
2012-04-24 01:45:00,0.0,1.9010,0.0009,402.29,0.36,270.7,36.2,138.11,28.42,24.62,36.34,0.04,-272.73,-272.74,-54,559,-929,23.2,5.4,-17.6,23.3,5.6,-17.2,5.73,2.32,-23.7,26.9
2012-04-24 01:46:00,0.0,1.9012,0.0012,402.21,0.33,255.1,37.0,138.12,28.42,24.62,36.33,0.04,-272.74,-272.74,-54,559,-929,23.2,5.4,-17.7,23.2,5.6,-17.2,5.73,2.47,-23.8,26.6
2012-04-24 01:47:00,0.0,1.9005,0.0012,402.22,0.37,237.3,47.5,138.12,28.41,24.62,36.33,0.04,-272.74,-272.74,-55,559,-929,23.2,5.4,-17.7,23.2,5.6,-17.2,5.73,2.31,-23.9,26.3
2012-04-24 01:48:00,0.0,1.9006,0.0013,402.17,0.32,222.2,42.3,138.12,28.40,24.62,36.33,0.04,-272.73,-272.73,-55,559,-929,23.1,5.3,-17.9,23.1,5.5,-17.4,5.73,2.29,-24.0,26.2
2012-04-24 01:49:00,0.0,1.9003,0.0010,402.13,0.36,214.0,45.5,138.13,28.39,24.62,36.33,0.04,-272.74,-272.73,-54,559,-929,23.1,5.3,-17.8,23.1,5.5,-17.4,5.73,2.43,-24.2,26.1
2012-04-24 01:50:00,0.0,1.9003,0.0011,402.31,0.37,194.4,44.2,138.13,28.38,24.62,36.32,0.04,-272.74,-272.74,-54,559,-929,23.1,5.4,-17.7,23.1,5.6,-17.3,5.73,2.44,-24.3,25.9
2012-04-24 01:51:00,0.0,1.9008,0.0010,402.23,0.35,189.1,37.2,138.14,28.36,24.61,36.33,0.04,-272.73,-272.74,-54,558,-929,23.0,5.4,-17.6,23.0,5.7,-17.2,5.73,2.31,-24.4,26.0
2012-04-24 01:52:00,0.0,1.9007,0.0008,402.20,0.40,182.9,43.0,138.14,28.34,24.62,36.33,0.04,-272.74,-272.74,-55,558,-929,23.0,5.4,-17.7,23.0,5.6,-17.3,5.73,2.29,-24.5,25.8
2012-04-24 01:53:00,0.0,1.9009,0.0012,402.30,0.30,175.1,36.5,138.14,28.32,24.61,36.32,0.04,-272.74,-272.74,-55,558,-929,23.0,5.4,-17.8,22.9,5.6,-17.3,5.73,2.40,-24.5,25.7
2012-04-24 01:54:00,0.0,1.9005,0.0011,402.24,0.40,169.6,46.8,138.14,28.30,24.62,36.32,0.04,-272.73,-272.73,-55,558,-929,22.9,5.5,-17.6,22.9,5.7,-17.2,5.73,2.45,-24.6,26.2
2012-04-24 01:55:00,0.0,1.9003,0.0009,402.28,0.39,166.0,45.3,138.14,28.29,24.61,36.32,0.04,-272.74,-272.74,-54,558,-928,22.9,5.5,-17.6,22.9,5.7,-17.1,5.73,2.25,-24.5,26.7
2012-04-24 01:56:00,0.0,1.9001,0.0011,402.18,0.40,187.1,44.2,138.14,28.28,24.62,36.32,0.04,-272.74,-272.74,-55,558,-928,22.9,5.5,-17.6,22.9,5.7,-17.1,5.73,2.44,-24.5,27.0
2012-04-24 01:57:00,0.0,1.9006,0.0010,402.26,0.32,188.8,41.0,138.13,28.28,24.62,36.32,0.04,-272.74,-272.74,-54,557,-928,23.0,5.5,-17.7,23.0,5.7,-17.2,5.73,2.35,-24.4,27.2
2012-04-24 01:58:00,0.0,1.9005,0.0013,402.03,0.36,182.6,43.0,138.13,28.28,24.62,36.33,0.27,-270.84,-272.31,-54,558,-928,23.0,5.4,-17.7,23.0,5.6,-17.2,5.42,2.36,-28.7,27.4
2012-04-24 01:59:00,0.0,1.9004,0.0010,402.08,0.31,196.1,42.2,138.12,28.28,24.62,36.32,0.04,-272.74,-272.74,-55,558,-928,23.0,5.4,-17.8,23.0,5.6,-17.4,5.73,2.40,-24.2,27.5
2012-04-24 02:00:00,0.0,1.9002,0.0012,402.13,0.40,215.7,43.4,138.12,28.28,24.62,36.32,0.04,-272.74,-272.74,-54,558,-928,23.0,5.4,-17.8,23.1,5.6,-17.4,5.73,2.41,-24.1,27.6
2012-04-24 02:01:00,0.0,1.9003,0.0010,401.99,0.31,228.2,37.2,138.12,28.29,24.62,36.33,0.04,-272.74,-272.74,-54,558,-928,23.0,5.4,-17.7,23.1,5.6,-17.3,5.73,2.32,-24.1,27.7
2012-04-24 02:02:00,0.0,1.8999,0.0011,402.02,0.30,224.2,39.2,138.12,28.31,24.62,36.32,0.04,-272.74,-272.73,-55,558,-928,23.1,5.5,-17.6,23.1,5.6,-17.2,5.73,2.30,-24.0,27.8
2012-04-24 02:03:00,0.0,1.9003,0.0010,402.07,0.36,242.6,35.7,138.11,28.32,24.62,36.33,0.04,-272.74,-272.74,-54,558,-928,23.1,5.4,-17.6,23.1,5.7,-17.1,5.73,2.38,-23.9,27.9
2012-04-24 02:04:00,0.0,1.9003,0.0011,401.98,0.41,249.0,37.2,138.11,28.33,24.62,36.33,0.04,-272.74,-272.73,-54,558,-928,23.1,5.3,-17.8,23.2,5.5,-17.3,5.73,2.42,-23.9,28.0
2012-04-24 02:05:00,0.0,1.9006,0.0011,402.18,0.39,241.0,46.9,138.11,28.35,24.61,36.32,0.04,-272.73,-272.73,-54,558,-928,23.1,5.3,-17.9,23.2,5.5,-17.4,5.73,2.36,-23.8,28.0
2012-04-24 02:06:00,0.0,1.9006,0.0009,402.08,0.34,248.0,42.7,138.11,28.36,24.62,36.34,0.04,-272.74,-272.74,-54,558,-928,23.2,5.3,-17.8,23.2,5.5,-17.4,5.73,2.30,-23.8,28.0
2012-04-24 02:07:00,0.0,1.9008,0.0011,402.17,0.34,249.1,37.1,138.11,28.38,24.62,36.34,0.04,-272.74,-272.74,-54,558,-928,23.2,5.4,-17.7,23.3,5.5,-17.3,5.73,2.33,-23.7,28.1
2012-04-24 02:08:00,0.0,1.9013,0.0011,402.28,0.36,256.5,43.9,138.10,28.39,24.62,36.33,0.04,-272.73,-272.74,-54,558,-928,23.2,5.3,-17.8,23.3,5.5,-17.3,5.73,2.39,-23.6,28.2
2012-04-24 02:09:00,0.0,1.9013,0.0011,402.23,0.40,270.5,44.3,138.10,28.41,24.62,36.33,0.04,-272.73,-272.74,-54,558,-928,23.3,5.4,-17.6,23.3,5.6,-17.1,5.73,2.40,-23.6,28.3
2012-04-24 02:10:00,0.0,1.9015,0.0010,402.41,0.40,276.7,35.5,138.10,28.43,24.62,36.33,0.04,-272.74,-272.74,-54,559,-928,23.3,5.4,-17.6,23.3,5.6,-17.2,5.73,2.32,-23.5,28.0
2012-04-24 02:11:00,0.0,1.9017,0.0009,402.32,0.34,280.3,42.6,138.10,28.44,24.62,36.33,0.04,-272.74,-272.74,-54,558,-928,23.3,5.3,-17.8,23.4,5.5,-17.3,5.73,2.32,-23.5,27.4
2012-04-24 02:12:00,0.0,1.9017,0.0011,402.21,0.39,272.0,39.5,138.11,28.45,24.62,36.34,0.04,-272.74,-272.74,-54,559,-929,23.3,5.2,-18.0,23.3,5.4,-17.4,5.73,2.39,-23.6,27.1
2012-04-24 02:13:00,0.0,1.9014,0.0010,402.22,0.37,254.2,43.2,138.11,28.45,24.62,36.34,0.04,-272.74,-272.74,-54,559,-929,23.3,5.2,-17.9,23.3,5.5,-17.4,5.73,2.41,-23.7,26.7
2012-04-24 02:14:00,0.0,1.9009,0.0010,402.22,0.49,239.9,36.3,138.12,28.45,24.62,36.34,0.04,-272.73,-272.74,-54,559,-929,23.3,5.3,-17.8,23.3,5.5,-17.3,5.73,2.26,-23.8,26.6
2012-04-24 02:15:00,0.0,1.9013,0.0011,402.27,0.35,245.5,38.7,138.12,28.45,24.62,36.33,0.04,-272.73,-272.73,-54,559,-929,23.2,5.3,-17.8,23.3,5.5,-17.3,5.73,2.42,-23.9,26.5
2012-04-24 02:16:00,0.0,1.9015,0.0010,402.20,0.38,224.3,45.7,138.12,28.44,24.62,36.33,0.04,-272.74,-272.74,-55,559,-929,23.2,5.2,-18.1,23.2,5.4,-17.6,5.73,2.43,-24.0,26.3